Location: Ostrava
(49.8330°N, 18.2830°E)
Time: 13:34:17
(UTC+02:00)

Cosmos 1263 Rocket - Visible Passes

Search period start: 02 September 2014 00:00
Search period end: 12 September 2014 00:00
Orbit: 320 x 591 km, 82.9° (Epoch: 02 September)

Date Brightness Start Highest point End Pass type
(mag) Time Alt. Az. Time Alt. Az. Time Alt. Az.
02 Sep 5.1 03:34:04 10° SE 03:36:47 17° E 03:39:27 10° NE visible
02 Sep 2.6 05:06:44 10° SSW 05:10:52 53° WNW 05:14:50 10° N visible
03 Sep 2.4 04:32:53 10° S 04:37:05 82° E 04:41:06 10° N visible
04 Sep 3.5 03:59:50 13° SSE 04:03:18 43° E 04:07:04 10° NNE visible
05 Sep 4.5 03:26:48 13° SE 03:29:31 23° E 03:32:40 10° NE visible
05 Sep 3.0 05:00:36 14° SW 05:03:46 36° WNW 05:07:24 10° N visible
06 Sep 5.1 02:53:51 10° ESE 02:55:43 13° E 02:57:33 10° ENE visible
06 Sep 2.2 04:27:25 25° SSW 04:29:41 67° W 04:33:32 10° N visible
07 Sep 2.6 03:54:07 36° SSE 03:55:35 63° E 03:59:23 10° NNE visible
07 Sep 4.1 05:28:05 10° W 05:30:18 14° WNW 05:32:28 10° NNW visible
08 Sep 3.7 03:20:42 29° ESE 03:21:29 32° E 03:24:53 10° NNE visible
08 Sep 3.5 04:54:28 20° WSW 04:55:53 25° WNW 04:59:03 10° NNW visible
09 Sep 4.6 02:47:09 17° E 02:47:22 17° E 02:49:54 10° NE visible
09 Sep 2.6 04:20:55 41° WSW 04:21:30 45° WNW 04:25:05 10° N visible
10 Sep 2.1 03:47:14 83° N 03:47:14 83° N 03:50:47 10° N visible
11 Sep 3.5 03:13:27 38° ENE 03:13:27 38° ENE 03:16:10 10° NNE visible
11 Sep 3.9 04:47:12 17° WNW 04:47:13 17° WNW 04:49:43 10° NNW visible
